SCP
0 0 0 0 0 0 0 0 0 0 0 0 0 0 0 0 1 1 1 0 0 0 0 -0 0 0 0 -0 0 0 0 0 -0 0 0 0 -0 -0 0 0 0 0 0
0 0 0 0 0 0 0 0 0 0 0 0 0 0 0 0 0 1 1 0 0 0 0 0 0 0 0 -0 0 0 0 0 0 0 0 0 0 0 0 0 0 0 0
0 0 0 0 0 0 0 0 0 0 0 1 1 0 0 0 0 1 1 0 0 0 0 0 0 0 -0 0 0 0 0 0 0 0 0 0 0 0 0 -0 -0 -0 -0
-0 0 0 0 0 0 0 0 0 0 0 0 0 0 0 0 1 1 0 0 0 0 0 0 0 0 0 0 0 -0 0 0 0 0 0 0 0 -0 -0 -0 -0 -0 -0
-0 0 0 0 0 0 0 0 0 0 0 0 1 0 0 0 1 0 0 0 0 0 0 0 0 0 0 0 -0 0 -0 0 0 0 0 0 -0 -0 -0 -0 -0 -0 -0
-0 -0 0 -0 -0 -0 0 0 0 0 0 0 1 0 0 0 1 0 0 0 0 0 0 0 0 0 0 -0 -0 0 0 -0 0 0 0 0 -0 -0 -0 -0 -0 -0 -0
-0 -0 0 -0 0 0 0 0 0 0 0 0 0 0 0 1 0 0 0 0 0 0 0 0 0 0 0 -0 0 -0 -0 -0 0 0 0 0 0 -0 -0 -0 -0 -0 -0
-0 -0 -0 -0 0 0 0 0 0 0 0 0 0 1 0 0 0 0 0 0 0 0 0 0 0 0 0 -0 -0 -0 0 0 -0 -0 -0 -0 -0 -0 -0 -0 -0 -0 -0
0 0 0 0 -0 0 0 0 0 0 1 0 0 1 0 0 0 0 0 0 0 0 0 0 0 0 0 0 -0 0 0 0 -0 -0 -0 -0 -0 -0 -0 -0 -0 0 0
-0 0 0 0 -0 0 0 0 0 0 0 0 1 1 0 0 0 0 0 0 0 0 0 0 0 0 0 0 0 0 0 -0 -0 -0 -0 -0 -0 -0 -0 0 0 0 0
-0 0 -0 -0 0 0 0 0 0 0 0 0 1 1 0 0 0 0 0 0 0 0 0 0 0 0 0 0 0 0 0 0 -0 -0 -0 -0 -0 -0 -0 -0 -0 -0 0
0 -0 0 0 0 0 0 0 0 0 0 0 1 0 0 0 0 0 0 -0 0 0 0 0 0 0 0 0 0 0 0 -0 -0 -0 -0 -0 -0 -0 -0 -0 -0 0 0
0 -0 -0 0 0 0 0 0 0 0 0 0 0 0 0 0 0 0 0 0 0 0 0 0 0 0 0 0 0 -0 0 -0 -0 -0 -0 -0 0 0 -0 -0 0 0 0
-0 -0 -0 0 0 0 0 0 0 0 0 0 0 0 0 0 0 0 0 0 0 0 0 0 0 0 0 0 -0 0 0 -0 -0 -0 0 -0 0 -0 -0 0 0 0 0
0 -0 -0 0 0 0 0 0 0 0 0 0 0 0 0 0 0 0 0 0 0 0 0 0 0 0 -0 -0 0 0 0 0 0 0 0 0 -0 0 0 0 0 0 0
-0 -0 0 -0 0 0 0 0 0 0 0 0 0 0 0 0 0 0 0 0 0 0 0 0 0 0 -0 0 0 0 -0 -0 -0 -0 -0 -0 -0 0 0 0 0 0 0
-0 -0 0 -0 0 0 0 0 0 0 0 0 0 0 0 0 0 0 0 0 0 0 0 0 0 -0 -0 0 -0 -0 0 0 0 -0 -0 -0 -0 0 0 0 0 0 0
0 0 -0 0 0 0 0 0 0 0 0 0 0 0 0 0 0 0 0 0 0 0 0 0 0 0 0 0 -0 0 0 -0 -0 -0 -0 -0 0 0 0 0 0 0 0
-0 0 0 0 0 0 0 0 0 0 0 0 0 0 0 0 0 0 0 0 0 0 -0 0 0 -0 -0 0 0 -0 -0 -0 0 -0 -0 0 0 0 0 0 0 0 0
-0 -0 0 0 0 0 0 -0 0 0 0 0 0 0 0 0 0 0 -0 0 -0 -0 -0 0 -0 -0 -0 0 0 0 0 0 0 0 0 0 0 0 0 0 0 0 0
-0 -0 0 0 0 -0 0 -0 -0 -0 0 -0 0 0 0 0 0 -0 -0 0 0 -0 -0 -0 -0 -0 0 0 0 0 0 0 0 0 0 0 0 0 0 0 0 0 0
-0 -0 0 0 0 0 0 0 -0 -0 -0 -0 0 0 0 0 0 0 0 -0 0 0 -0 -0 0 0 -0 0 0 0 0 0 0 0 0 0 0 0 0 0 0 0 0
0 0 -0 0 0 0 0 0 0 0 0 0 0 -0 0 0 0 0 0 0 0 -0 0 -0 0 0 0 0 0 0 0 0 0 0 0 0 0 0 0 0 0 0 0
0 0 0 0 0 0 0 0 0 0 0 0 -0 0 0 0 0 0 0 0 0 0 0 0 0 0 0 0 0 0 0 0 0 0 0 0 0 0 0 0 0 0 0
0 0 0 0 0 0 0 0 0 0 0 0 0 0 0 0 0 0 -0 -0 -0 -0 -0 -0 -0 0 0 0 0 0 0 0 0 0 0 0 0 0 0 0 0 0 0
0 0 0 0 0 0 -0 -0 -0 -0 -0 0 0 0 0 0 0 0 -0 -0 -0 -0 -0 -0 -0 0 0 0 0 0 0 0 0 0 0 0 0 0 0 0 0 0 0
Wind_Speed_500mb
26 26 23 22 29 28 34 35 35 37 24 36 35 33 37 31 36 37 31 31 45 47 60 50 54 64 58 55 51 49 52 50 46 43 39 35 30 24 20 14 10 11 10
25 24 23 25 32 33 37 34 37 39 36 38 39 42 45 30 40 37 35 36 44 50 51 58 71 71 56 55 52 55 52 51 47 39 35 32 26 21 15 10 9 9 9
24 22 18 21 27 41 39 43 43 34 37 45 46 53 48 35 39 36 38 37 47 52 61 72 78 68 58 57 56 54 53 51 42 37 32 27 24 17 11 7 5 7 12
26 21 19 21 19 36 42 42 45 37 33 37 50 45 60 34 29 37 41 44 45 56 68 72 66 70 72 61 57 53 55 48 41 35 28 24 19 12 7 1 5 11 13
25 20 16 11 13 26 42 39 44 33 35 38 37 40 29 37 39 41 48 49 46 57 64 69 68 69 69 70 64 59 52 43 38 33 27 21 14 7 1 4 11 13 11
21 21 16 14 14 24 37 44 41 38 43 44 34 37 34 26 38 47 51 56 53 55 66 57 62 63 68 64 61 55 45 42 36 30 26 19 11 5 4 12 13 11 8
24 18 16 17 19 22 34 34 47 43 36 38 39 33 28 30 36 48 56 61 59 65 61 68 70 71 64 59 59 56 46 41 35 31 25 15 7 5 11 13 10 8 5
18 20 17 20 23 21 27 32 45 45 43 45 43 36 24 23 29 52 61 64 65 63 67 67 75 66 63 55 52 45 43 40 36 30 22 14 10 11 13 11 9 6 3
13 17 22 20 18 21 27 30 34 36 37 44 32 36 29 18 44 53 58 68 64 63 63 67 70 70 62 59 52 47 43 37 31 26 20 14 10 13 12 10 9 5 7
12 14 30 22 25 20 20 27 25 23 32 43 32 39 29 42 34 45 68 72 58 70 67 70 66 62 59 56 49 46 39 35 28 23 18 12 14 13 10 12 10 8 9
9 19 30 28 31 18 20 25 28 34 32 37 39 40 36 48 35 57 68 69 64 67 66 56 53 53 53 49 42 40 31 26 24 19 14 13 14 14 16 11 9 10 11
6 18 32 35 27 23 27 24 27 34 34 36 37 34 41 47 57 67 72 73 64 60 54 55 49 48 44 51 43 31 24 23 19 18 19 17 18 17 12 10 12 11 13
13 20 29 33 31 25 27 29 27 31 35 39 40 46 39 44 57 66 69 68 67 58 53 51 51 50 65 60 57 26 25 25 21 20 16 19 17 13 11 13 15 13 13
17 23 21 25 26 26 34 32 34 38 37 50 47 46 50 44 59 60 77 82 68 64 57 61 54 48 49 56 43 27 26 24 20 17 18 18 17 14 17 19 17 17 16
26 22 26 22 29 32 34 40 45 51 48 51 49 45 45 45 51 67 69 78 74 56 57 53 50 38 36 41 33 31 21 21 19 19 21 22 20 18 23 21 20 19 24
32 29 32 34 35 41 45 48 47 50 49 45 43 41 38 45 52 61 51 56 58 68 45 56 49 43 35 32 19 20 16 19 21 24 25 26 24 25 27 25 25 27 31
24 26 35 38 41 41 46 47 48 49 44 45 40 35 35 43 59 57 65 56 51 51 59 48 40 34 33 27 22 24 22 17 20 26 30 31 32 30 29 30 31 34 35
23 27 34 39 42 43 40 39 37 41 40 38 35 27 46 48 52 54 52 45 49 35 29 44 35 35 32 28 17 28 22 21 20 25 29 32 30 34 34 36 36 39 42
27 34 36 39 39 44 39 36 36 38 39 37 30 32 52 50 50 51 56 40 36 26 27 38 27 23 32 30 25 29 23 18 28 26 32 33 35 38 40 41 44 46 48
40 38 36 31 32 34 30 34 38 43 38 37 34 35 40 47 47 60 48 34 33 26 32 23 21 30 28 28 23 29 29 28 37 42 47 46 43 43 45 44 49 55 56
38 37 41 37 24 35 38 41 43 41 42 49 44 43 47 48 41 52 45 34 35 31 34 22 27 27 25 28 32 22 23 21 28 35 38 35 34 39 42 45 50 54 56
25 25 28 33 33 41 31 39 44 42 47 44 42 45 45 33 35 31 26 31 32 30 38 30 32 23 20 19 16 21 27 31 40 35 45 49 49 60 58 59 57 57 59
28 26 13 29 38 41 39 39 38 43 45 41 37 40 39 37 33 39 42 39 35 38 28 31 30 22 26 23 24 20 24 35 42 41 43 49 50 64 65 67 69 70 70
26 21 18 30 35 37 39 41 38 38 41 43 38 35 43 46 40 37 38 47 38 38 36 29 32 31 27 24 23 26 33 37 40 42 37 47 48 62 65 62 57 61 64
31 28 22 26 31 35 41 38 32 37 36 40 30 28 33 35 35 32 32 33 31 28 25 23 19 17 16 19 25 29 29 29 34 35 25 34 32 35 36 42 39 50 57
31 30 23 20 25 35 36 34 29 23 30 35 34 29 33 30 33 35 31 31 29 23 21 16 12 13 17 22 26 31 34 38 41 50 46 43 56 61 68 66 70 64 65
Wind_Direction_500mb
272 267 265 250 232 236 224 208 204 201 208 191 200 211 188 198 208 205 195 185 175 188 170 170 182 165 169 168 167 168 165 161 157 152 151 147 149 146 136 129 105 77 63
275 271 271 251 229 217 227 207 197 192 196 203 209 202 192 219 192 199 195 185 176 185 188 176 171 162 169 163 168 167 164 158 156 153 150 151 149 148 142 110 82 66 69
273 279 273 266 237 219 222 210 200 192 200 209 209 199 191 201 190 194 190 181 182 173 175 174 160 162 164 162 167 164 165 159 153 151 154 153 155 151 120 95 73 94 101
270 268 270 263 253 212 206 201 196 200 201 206 193 192 184 195 194 193 187 176 177 179 173 169 167 162 160 157 163 167 166 162 150 156 158 159 154 138 112 72 117 113 115
256 254 263 258 213 193 194 192 182 191 186 178 185 186 185 202 189 186 177 174 170 171 179 171 168 162 160 158 168 172 169 156 159 158 165 160 150 149 186 144 126 127 129
243 242 249 227 192 183 181 177 178 189 179 176 176 178 195 186 189 178 170 167 166 168 163 158 163 167 158 160 166 167 168 164 164 161 171 168 163 197 154 149 138 132 120
231 226 229 207 182 179 181 179 179 179 179 175 177 178 174 185 187 176 169 169 165 159 153 162 160 157 159 166 168 173 167 168 169 176 175 174 191 207 162 151 143 146 127
202 213 205 181 177 175 178 176 175 175 183 173 178 167 144 160 187 180 179 171 165 170 170 167 160 158 162 170 173 174 175 173 179 179 180 187 212 180 168 162 173 171 232
196 194 168 156 160 170 175 167 173 178 165 173 176 165 141 164 156 175 175 171 165 160 163 164 160 158 172 172 176 174 184 182 182 185 187 205 207 182 177 176 199 228 263
173 174 166 167 157 132 165 155 147 147 158 169 157 163 165 156 158 142 152 154 160 155 157 156 159 169 170 172 176 182 182 185 187 192 199 217 202 188 182 201 228 250 282
154 184 165 166 161 153 174 159 151 157 156 166 164 163 157 142 149 121 125 135 140 151 157 161 161 164 172 163 173 183 186 186 197 202 224 244 207 193 204 216 255 276 279
125 165 168 160 172 180 177 176 154 156 149 149 152 162 147 146 140 135 134 139 144 154 155 161 160 166 175 176 176 180 197 204 211 224 238 215 198 200 218 247 268 262 272
103 143 167 174 185 178 171 178 159 150 149 145 145 152 149 139 149 155 149 142 139 149 154 160 161 161 162 169 176 199 210 212 223 231 215 202 199 211 241 259 253 265 280
98 132 144 159 178 177 173 163 147 145 145 139 140 148 138 135 161 156 152 154 137 141 148 154 158 165 171 173 186 205 209 220 223 213 206 205 208 225 253 250 253 272 292
107 121 134 153 153 154 152 152 146 141 140 142 151 146 150 149 158 163 155 146 145 140 140 147 153 169 174 193 209 219 207 218 218 215 214 214 224 240 251 255 260 276 282
112 105 127 130 144 147 147 149 152 150 138 128 133 148 147 152 159 168 176 172 162 155 150 165 167 166 179 200 208 217 209 218 219 216 217 225 240 248 258 264 271 276 277
112 99 117 127 138 142 146 152 157 153 148 143 138 123 140 146 167 167 165 166 172 166 165 165 173 189 198 201 196 198 202 195 220 222 230 239 246 258 268 273 274 276 280
122 121 122 125 137 142 147 151 154 156 168 167 159 137 156 145 150 162 168 174 172 165 151 178 180 193 191 193 188 198 202 227 237 238 246 254 263 269 275 276 281 281 284
109 124 135 127 142 145 148 149 152 158 161 153 159 139 144 145 149 156 164 153 160 165 174 177 179 180 175 190 197 204 198 212 252 261 257 264 267 271 276 279 280 283 284
100 113 127 121 129 142 139 138 144 154 156 148 152 151 155 152 153 159 154 152 162 164 167 171 164 155 174 195 207 207 215 226 236 247 258 268 269 273 276 283 285 284 290
107 98 104 101 120 126 130 126 126 131 137 129 127 149 144 143 150 164 160 151 158 171 169 170 157 162 187 205 215 224 244 255 256 266 281 285 290 289 293 295 298 300 300
109 104 115 125 122 116 119 133 131 129 130 135 136 135 145 152 152 156 165 165 167 176 170 173 176 188 210 229 240 234 232 246 262 280 277 288 305 306 308 307 311 313 314
129 138 118 133 136 129 123 123 129 138 147 145 142 142 146 155 163 165 169 172 173 178 184 183 189 194 205 230 249 254 256 246 258 272 283 290 289 299 308 312 313 314 311
146 144 137 142 138 132 131 129 131 131 133 137 138 154 165 165 167 168 162 169 173 177 182 179 176 192 200 209 234 251 255 262 272 282 285 286 304 298 304 297 288 293 302
161 149 158 168 167 155 145 145 147 148 150 145 154 169 168 165 164 161 170 176 176 184 183 187 194 211 230 244 244 257 267 275 290 296 305 306 315 301 310 302 295 298 297
171 159 175 183 183 182 177 169 150 166 168 166 180 172 180 177 168 164 167 170 172 170 175 192 223 257 280 293 299 300 301 293 291 299 300 296 298 307 311 296 301 294 296
Wind_Speed_850mb
26 26 23 22 29 28 34 35 35 37 24 36 35 33 37 31 36 37 31 31 45 47 60 50 54 64 58 55 51 49 52 50 46 43 39 35 30 24 20 14 10 11 10
25 24 23 25 32 33 37 34 37 39 36 38 39 42 45 30 40 37 35 36 44 50 51 58 71 71 56 55 52 55 52 51 47 39 35 32 26 21 15 10 9 9 9
24 22 18 21 27 41 39 43 43 34 37 45 46 53 48 35 39 36 38 37 47 52 61 72 78 68 58 57 56 54 53 51 42 37 32 27 24 17 11 7 5 7 12
26 21 19 21 19 36 42 42 45 37 33 37 50 45 60 34 29 37 41 44 45 56 68 72 66 70 72 61 57 53 55 48 41 35 28 24 19 12 7 1 5 11 13
25 20 16 11 13 26 42 39 44 33 35 38 37 40 29 37 39 41 48 49 46 57 64 69 68 69 69 70 64 59 52 43 38 33 27 21 14 7 1 4 11 13 11
21 21 16 14 14 24 37 44 41 38 43 44 34 37 34 26 38 47 51 56 53 55 66 57 62 63 68 64 61 55 45 42 36 30 26 19 11 5 4 12 13 11 8
24 18 16 17 19 22 34 34 47 43 36 38 39 33 28 30 36 48 56 61 59 65 61 68 70 71 64 59 59 56 46 41 35 31 25 15 7 5 11 13 10 8 5
18 20 17 20 23 21 27 32 45 45 43 45 43 36 24 23 29 52 61 64 65 63 67 67 75 66 63 55 52 45 43 40 36 30 22 14 10 11 13 11 9 6 3
13 17 22 20 18 21 27 30 34 36 37 44 32 36 29 18 44 53 58 68 64 63 63 67 70 70 62 59 52 47 43 37 31 26 20 14 10 13 12 10 9 5 7
12 14 30 22 25 20 20 27 25 23 32 43 32 39 29 42 34 45 68 72 58 70 67 70 66 62 59 56 49 46 39 35 28 23 18 12 14 13 10 12 10 8 9
9 19 30 28 31 18 20 25 28 34 32 37 39 40 36 48 35 57 68 69 64 67 66 56 53 53 53 49 42 40 31 26 24 19 14 13 14 14 16 11 9 10 11
6 18 32 35 27 23 27 24 27 34 34 36 37 34 41 47 57 67 72 73 64 60 54 55 49 48 44 51 43 31 24 23 19 18 19 17 18 17 12 10 12 11 13
13 20 29 33 31 25 27 29 27 31 35 39 40 46 39 44 57 66 69 68 67 58 53 51 51 50 65 60 57 26 25 25 21 20 16 19 17 13 11 13 15 13 13
17 23 21 25 26 26 34 32 34 38 37 50 47 46 50 44 59 60 77 82 68 64 57 61 54 48 49 56 43 27 26 24 20 17 18 18 17 14 17 19 17 17 16
26 22 26 22 29 32 34 40 45 51 48 51 49 45 45 45 51 67 69 78 74 56 57 53 50 38 36 41 33 31 21 21 19 19 21 22 20 18 23 21 20 19 24
32 29 32 34 35 41 45 48 47 50 49 45 43 41 38 45 52 61 51 56 58 68 45 56 49 43 35 32 19 20 16 19 21 24 25 26 24 25 27 25 25 27 31
24 26 35 38 41 41 46 47 48 49 44 45 40 35 35 43 59 57 65 56 51 51 59 48 40 34 33 27 22 24 22 17 20 26 30 31 32 30 29 30 31 34 35
23 27 34 39 42 43 40 39 37 41 40 38 35 27 46 48 52 54 52 45 49 35 29 44 35 35 32 28 17 28 22 21 20 25 29 32 30 34 34 36 36 39 42
27 34 36 39 39 44 39 36 36 38 39 37 30 32 52 50 50 51 56 40 36 26 27 38 27 23 32 30 25 29 23 18 28 26 32 33 35 38 40 41 44 46 48
40 38 36 31 32 34 30 34 38 43 38 37 34 35 40 47 47 60 48 34 33 26 32 23 21 30 28 28 23 29 29 28 37 42 47 46 43 43 45 44 49 55 56
38 37 41 37 24 35 38 41 43 41 42 49 44 43 47 48 41 52 45 34 35 31 34 22 27 27 25 28 32 22 23 21 28 35 38 35 34 39 42 45 50 54 56
25 25 28 33 33 41 31 39 44 42 47 44 42 45 45 33 35 31 26 31 32 30 38 30 32 23 20 19 16 21 27 31 40 35 45 49 49 60 58 59 57 57 59
28 26 13 29 38 41 39 39 38 43 45 41 37 40 39 37 33 39 42 39 35 38 28 31 30 22 26 23 24 20 24 35 42 41 43 49 50 64 65 67 69 70 70
26 21 18 30 35 37 39 41 38 38 41 43 38 35 43 46 40 37 38 47 38 38 36 29 32 31 27 24 23 26 33 37 40 42 37 47 48 62 65 62 57 61 64
31 28 22 26 31 35 41 38 32 37 36 40 30 28 33 35 35 32 32 33 31 28 25 23 19 17 16 19 25 29 29 29 34 35 25 34 32 35 36 42 39 50 57
31 30 23 20 25 35 36 34 29 23 30 35 34 29 33 30 33 35 31 31 29 23 21 16 12 13 17 22 26 31 34 38 41 50 46 43 56 61 68 66 70 64 65
Wind_Direction_850mb
272 267 265 250 232 236 224 208 204 201 208 191 200 211 188 198 208 205 195 185 175 188 170 170 182 165 169 168 167 168 165 161 157 152 151 147 149 146 136 129 105 77 63
275 271 271 251 229 217 227 207 197 192 196 203 209 202 192 219 192 199 195 185 176 185 188 176 171 162 169 163 168 167 164 158 156 153 150 151 149 148 142 110 82 66 69
273 279 273 266 237 219 222 210 200 192 200 209 209 199 191 201 190 194 190 181 182 173 175 174 160 162 164 162 167 164 165 159 153 151 154 153 155 151 120 95 73 94 101
270 268 270 263 253 212 206 201 196 200 201 206 193 192 184 195 194 193 187 176 177 179 173 169 167 162 160 157 163 167 166 162 150 156 158 159 154 138 112 72 117 113 115
256 254 263 258 213 193 194 192 182 191 186 178 185 186 185 202 189 186 177 174 170 171 179 171 168 162 160 158 168 172 169 156 159 158 165 160 150 149 186 144 126 127 129
243 242 249 227 192 183 181 177 178 189 179 176 176 178 195 186 189 178 170 167 166 168 163 158 163 167 158 160 166 167 168 164 164 161 171 168 163 197 154 149 138 132 120
231 226 229 207 182 179 181 179 179 179 179 175 177 178 174 185 187 176 169 169 165 159 153 162 160 157 159 166 168 173 167 168 169 176 175 174 191 207 162 151 143 146 127
202 213 205 181 177 175 178 176 175 175 183 173 178 167 144 160 187 180 179 171 165 170 170 167 160 158 162 170 173 174 175 173 179 179 180 187 212 180 168 162 173 171 232
196 194 168 156 160 170 175 167 173 178 165 173 176 165 141 164 156 175 175 171 165 160 163 164 160 158 172 172 176 174 184 182 182 185 187 205 207 182 177 176 199 228 263
173 174 166 167 157 132 165 155 147 147 158 169 157 163 165 156 158 142 152 154 160 155 157 156 159 169 170 172 176 182 182 185 187 192 199 217 202 188 182 201 228 250 282
154 184 165 166 161 153 174 159 151 157 156 166 164 163 157 142 149 121 125 135 140 151 157 161 161 164 172 163 173 183 186 186 197 202 224 244 207 193 204 216 255 276 279
125 165 168 160 172 180 177 176 154 156 149 149 152 162 147 146 140 135 134 139 144 154 155 161 160 166 175 176 176 180 197 204 211 224 238 215 198 200 218 247 268 262 272
103 143 167 174 185 178 171 178 159 150 149 145 145 152 149 139 149 155 149 142 139 149 154 160 161 161 162 169 176 199 210 212 223 231 215 202 199 211 241 259 253 265 280
98 132 144 159 178 177 173 163 147 145 145 139 140 148 138 135 161 156 152 154 137 141 148 154 158 165 171 173 186 205 209 220 223 213 206 205 208 225 253 250 253 272 292
107 121 134 153 153 154 152 152 146 141 140 142 151 146 150 149 158 163 155 146 145 140 140 147 153 169 174 193 209 219 207 218 218 215 214 214 224 240 251 255 260 276 282
112 105 127 130 144 147 147 149 152 150 138 128 133 148 147 152 159 168 176 172 162 155 150 165 167 166 179 200 208 217 209 218 219 216 217 225 240 248 258 264 271 276 277
112 99 117 127 138 142 146 152 157 153 148 143 138 123 140 146 167 167 165 166 172 166 165 165 173 189 198 201 196 198 202 195 220 222 230 239 246 258 268 273 274 276 280
122 121 122 125 137 142 147 151 154 156 168 167 159 137 156 145 150 162 168 174 172 165 151 178 180 193 191 193 188 198 202 227 237 238 246 254 263 269 275 276 281 281 284
109 124 135 127 142 145 148 149 152 158 161 153 159 139 144 145 149 156 164 153 160 165 174 177 179 180 175 190 197 204 198 212 252 261 257 264 267 271 276 279 280 283 284
100 113 127 121 129 142 139 138 144 154 156 148 152 151 155 152 153 159 154 152 162 164 167 171 164 155 174 195 207 207 215 226 236 247 258 268 269 273 276 283 285 284 290
107 98 104 101 120 126 130 126 126 131 137 129 127 149 144 143 150 164 160 151 158 171 169 170 157 162 187 205 215 224 244 255 256 266 281 285 290 289 293 295 298 300 300
109 104 115 125 122 116 119 133 131 129 130 135 136 135 145 152 152 156 165 165 167 176 170 173 176 188 210 229 240 234 232 246 262 280 277 288 305 306 308 307 311 313 314
129 138 118 133 136 129 123 123 129 138 147 145 142 142 146 155 163 165 169 172 173 178 184 183 189 194 205 230 249 254 256 246 258 272 283 290 289 299 308 312 313 314 311
146 144 137 142 138 132 131 129 131 131 133 137 138 154 165 165 167 168 162 169 173 177 182 179 176 192 200 209 234 251 255 262 272 282 285 286 304 298 304 297 288 293 302
161 149 158 168 167 155 145 145 147 148 150 145 154 169 168 165 164 161 170 176 176 184 183 187 194 211 230 244 244 257 267 275 290 296 305 306 315 301 310 302 295 298 297
171 159 175 183 183 182 177 169 150 166 168 166 180 172 180 177 168 164 167 170 172 170 175 192 223 257 280 293 299 300 301 293 291 299 300 296 298 307 311 296 301 294 296